BAW2159 TLPL-TTCP

Flight info

Callsign BAW2159
Flight time 0h 28m
Altitude 22000
Route KOBAK DCT GOTER DCT PIBNA
Aircraft A332/H-SDE3GHIJ2J3J5M1RVWXY/LB2D1

Departure

Time 2026-05-07 13:41
Airport Hewanorra International Airport (TLPL)

Arrival

Time 2026-05-07 14:10
Airport A.N.R. Robinson International Airport (TTCP)
Time Latitude Longitude Altitude Speed Heading
2026-05-07 13:36 13.73652 -60.94642 20 ft 0 kts 66°
2026-05-07 13:38 13.73646 -60.94659 22 ft 3 kts 42°
2026-05-07 13:39 13.73630 -60.94671 25 ft 2 kts 32°
2026-05-07 13:39 13.73616 -60.94680 25 ft 3 kts 32°
2026-05-07 13:39 13.73600 -60.94691 25 ft 3 kts 61°
2026-05-07 13:39 13.73595 -60.94709 26 ft 3 kts 111°
2026-05-07 13:40 13.73589 -60.94702 26 ft 4 kts 126°
2026-05-07 13:40 13.73500 -60.94613 20 ft 28 kts 139°
2026-05-07 13:40 13.73359 -60.94536 19 ft 8 kts 193°
2026-05-07 13:40 13.73336 -60.94567 19 ft 6 kts 257°
2026-05-07 13:41 13.73333 -60.94651 19 ft 52 kts 268°
2026-05-07 13:41 13.73332 -60.95443 26 ft 167 kts 270°
2026-05-07 13:41 13.72919 -60.96631 1064 ft 193 kts 221°
2026-05-07 13:41 13.71590 -60.97243 2403 ft 215 kts 178°
2026-05-07 13:42 13.70063 -60.97373 4304 ft 231 kts 184°
2026-05-07 13:42 13.68371 -60.97423 5765 ft 256 kts 177°
2026-05-07 13:42 13.66525 -60.97414 7167 ft 273 kts 178°
2026-05-07 13:42 13.64589 -60.97418 8678 ft 284 kts 179°
2026-05-07 13:43 13.62580 -60.97437 10171 ft 293 kts 179°
2026-05-07 13:43 13.60502 -60.97464 11224 ft 316 kts 179°
2026-05-07 13:43 13.58174 -60.97499 11820 ft 353 kts 179°
2026-05-07 13:43 13.55603 -60.97543 12452 ft 384 kts 179°
2026-05-07 13:44 13.52867 -60.97593 13471 ft 401 kts 179°
2026-05-07 13:44 13.50041 -60.97646 14597 ft 410 kts 180°
2026-05-07 13:44 13.47166 -60.97701 15800 ft 416 kts 180°
2026-05-07 13:44 13.44251 -60.97756 16881 ft 423 kts 180°
2026-05-07 13:45 13.41294 -60.97811 18073 ft 425 kts 182°
2026-05-07 13:45 13.38336 -60.97866 19168 ft 426 kts 182°
2026-05-07 13:45 13.35399 -60.97921 20073 ft 430 kts 182°
2026-05-07 13:45 13.33367 -60.97959 20642 ft 433 kts 183°
2026-05-07 13:46 13.30335 -60.98015 21437 ft 439 kts 183°
2026-05-07 13:46 13.27307 -60.98072 21909 ft 445 kts 182°
2026-05-07 13:46 13.23141 -60.98148 22231 ft 448 kts 183°
2026-05-07 13:46 13.21079 -60.98186 22154 ft 448 kts 183°
2026-05-07 13:47 13.16900 -60.98262 22067 ft 450 kts 182°
2026-05-07 13:47 13.14829 -60.98300 22069 ft 450 kts 183°
2026-05-07 13:47 13.11693 -60.98357 22069 ft 450 kts 183°
2026-05-07 13:47 13.08565 -60.98415 22072 ft 449 kts 183°
2026-05-07 13:48 13.04429 -60.98490 22064 ft 449 kts 183°
2026-05-07 13:48 13.02319 -60.98529 22070 ft 449 kts 183°
2026-05-07 13:48 12.99195 -60.98586 22073 ft 449 kts 183°
2026-05-07 13:48 12.96114 -60.98643 22062 ft 449 kts 183°
2026-05-07 13:49 12.92990 -60.98700 22066 ft 449 kts 183°
2026-05-07 13:49 12.89871 -60.98757 22060 ft 449 kts 183°
2026-05-07 13:49 12.86744 -60.98814 22065 ft 449 kts 183°
2026-05-07 13:49 12.83623 -60.98872 22064 ft 449 kts 183°
2026-05-07 13:50 12.80500 -60.98929 22055 ft 449 kts 183°
2026-05-07 13:50 12.76364 -60.99005 22055 ft 449 kts 183°
2026-05-07 13:50 12.73242 -60.99062 22059 ft 449 kts 183°
2026-05-07 13:50 12.71132 -60.99100 22053 ft 449 kts 183°
2026-05-07 13:51 12.68055 -60.99157 22055 ft 449 kts 183°
2026-05-07 13:51 12.64930 -60.99214 22060 ft 449 kts 183°
2026-05-07 13:51 12.61808 -60.99271 22051 ft 449 kts 183°
2026-05-07 13:51 12.58683 -60.99328 22060 ft 449 kts 183°
2026-05-07 13:52 12.55561 -60.99385 22061 ft 449 kts 183°
2026-05-07 13:52 12.52439 -60.99442 22060 ft 449 kts 183°
2026-05-07 13:52 12.49315 -60.99499 22060 ft 449 kts 183°
2026-05-07 13:52 12.46194 -60.99556 22049 ft 448 kts 183°
2026-05-07 13:53 12.43084 -60.99613 22064 ft 447 kts 183°
2026-05-07 13:53 12.40020 -60.99669 22057 ft 446 kts 183°
2026-05-07 13:53 12.36917 -60.99725 22055 ft 446 kts 183°
2026-05-07 13:53 12.33811 -60.99782 22059 ft 446 kts 183°
2026-05-07 13:54 12.30711 -60.99839 22056 ft 446 kts 183°
2026-05-07 13:54 12.27606 -60.99895 22055 ft 446 kts 183°
2026-05-07 13:54 12.24501 -60.99952 22053 ft 446 kts 183°
2026-05-07 13:54 12.21401 -61.00009 22062 ft 446 kts 183°
2026-05-07 13:55 12.18293 -61.00065 22053 ft 446 kts 183°
2026-05-07 13:55 12.15191 -61.00122 22059 ft 446 kts 182°
2026-05-07 13:55 12.12135 -61.00177 22061 ft 445 kts 182°
2026-05-07 13:55 12.09040 -61.00234 22058 ft 445 kts 182°
2026-05-07 13:56 12.05943 -61.00290 22056 ft 445 kts 182°
2026-05-07 13:56 12.02852 -61.00346 22051 ft 445 kts 182°
2026-05-07 13:56 11.99762 -61.00402 22057 ft 444 kts 182°
2026-05-07 13:56 11.96671 -61.00459 21946 ft 442 kts 182°
2026-05-07 13:57 11.93618 -61.00513 21214 ft 436 kts 182°
2026-05-07 13:57 11.90590 -61.00568 20219 ft 434 kts 182°
2026-05-07 13:57 11.87585 -61.00623 19284 ft 430 kts 182°
2026-05-07 13:57 11.84607 -61.00677 18412 ft 426 kts 182°
2026-05-07 13:58 11.81663 -61.00731 17414 ft 421 kts 181°
2026-05-07 13:58 11.78740 -61.00785 16254 ft 421 kts 181°
2026-05-07 13:58 11.75815 -61.00839 15288 ft 419 kts 180°
2026-05-07 13:58 11.72968 -61.00892 15080 ft 397 kts 179°
2026-05-07 13:59 11.70334 -61.00942 15073 ft 371 kts 180°
2026-05-07 13:59 11.67830 -61.00988 15066 ft 349 kts 180°
2026-05-07 13:59 11.65477 -61.01031 15054 ft 329 kts 180°
2026-05-07 13:59 11.63253 -61.01072 15041 ft 311 kts 179°
2026-05-07 14:00 11.61118 -61.01110 14685 ft 307 kts 179°
2026-05-07 14:00 11.58942 -61.01146 13943 ft 319 kts 179°
2026-05-07 14:00 11.56690 -61.01185 13222 ft 326 kts 179°
2026-05-07 14:00 11.54426 -61.01225 12721 ft 324 kts 179°
2026-05-07 14:01 11.52181 -61.01267 12221 ft 322 kts 179°
2026-05-07 14:01 11.49991 -61.01307 11795 ft 317 kts 179°
2026-05-07 14:01 11.47795 -61.01347 11333 ft 314 kts 179°
2026-05-07 14:01 11.45629 -61.01387 10923 ft 310 kts 179°
2026-05-07 14:02 11.43486 -61.01426 10511 ft 305 kts 179°
2026-05-07 14:02 11.41374 -61.01464 10069 ft 302 kts 179°
2026-05-07 14:02 11.39285 -61.01502 9615 ft 298 kts 179°
2026-05-07 14:02 11.37214 -61.01539 9097 ft 297 kts 178°
2026-05-07 14:03 11.35150 -61.01576 8565 ft 296 kts 179°
2026-05-07 14:03 11.33126 -61.01613 8097 ft 293 kts 179°
2026-05-07 14:03 11.31092 -61.01650 7609 ft 292 kts 179°
2026-05-07 14:03 11.29067 -61.01687 7116 ft 291 kts 178°
2026-05-07 14:04 11.27054 -61.01723 6685 ft 288 kts 178°
2026-05-07 14:04 11.25056 -61.01760 6180 ft 287 kts 178°
2026-05-07 14:04 11.23067 -61.01795 5751 ft 284 kts 178°
2026-05-07 14:04 11.21101 -61.01831 5301 ft 281 kts 178°
2026-05-07 14:05 11.19167 -61.01725 4912 ft 272 kts 166°
2026-05-07 14:05 11.17525 -61.01034 4615 ft 243 kts 140°
2026-05-07 14:05 11.16500 -60.99836 4378 ft 216 kts 116°
2026-05-07 14:05 11.16075 -60.98476 4188 ft 190 kts 97°
2026-05-07 14:06 11.15942 -60.97218 3995 ft 168 kts 93°
2026-05-07 14:06 11.15867 -60.96108 3797 ft 146 kts 92°
2026-05-07 14:06 11.15805 -60.95135 3620 ft 130 kts 91°
2026-05-07 14:06 11.15747 -60.94265 3442 ft 118 kts 91°
2026-05-07 14:07 11.15692 -60.93453 3211 ft 113 kts 91°
2026-05-07 14:07 11.15639 -60.92664 2933 ft 111 kts 92°
2026-05-07 14:07 11.15584 -60.91867 2508 ft 119 kts 91°
2026-05-07 14:07 11.15523 -60.90983 2022 ft 132 kts 91°
2026-05-07 14:08 11.15445 -60.90046 1632 ft 134 kts 91°
2026-05-07 14:08 11.15366 -60.89120 1328 ft 128 kts 90°
2026-05-07 14:08 11.15314 -60.88227 951 ft 129 kts 90°
2026-05-07 14:08 11.15264 -60.87275 587 ft 132 kts 91°
2026-05-07 14:09 11.15189 -60.86378 386 ft 122 kts 91°
2026-05-07 14:09 11.15129 -60.85544 227 ft 115 kts 91°
2026-05-07 14:09 11.15076 -60.84745 90 ft 113 kts 90°
2026-05-07 14:09 11.15024 -60.83973 37 ft 100 kts 95°
2026-05-07 14:10 11.14980 -60.83540 39 ft 22 kts 110°
2026-05-07 14:10 11.14988 -60.83514 39 ft 3 kts 358°
2026-05-07 14:10 11.14995 -60.83569 36 ft 26 kts 271°
2026-05-07 14:10 11.15043 -60.83774 38 ft 31 kts 298°
2026-05-07 14:11 11.15162 -60.83852 39 ft 18 kts
2026-05-07 14:11 11.15174 -60.83851 39 ft 0 kts